TITAN 3C TRANSTAGE DEB, 1964

Orbit data source: Space-Track

TITAN 3C TRANSTAGE DEB, 1964 is space debris in LEO originally from a launch on Fri, 15 Oct 1965 UTC launched from the Air Force Eastern Test Range (AFETR). Debris objects in space refer to the collection of defunct objects orbiting the Earth. Examples of debris include non-operational satellites, rocket bodies, and fragments generated from explosions, collisions, or faulty payload assembly.

Loading next visibility...
Identifier
1964, 1965-082GZ
Orbit
LEO
Country
Flag of USUS
Related business
Manufacturer
Unknown
Mission
Spacecraft
Bus & Motor
Unknown
Mass
Unknown
Launch date (UTC)
1965-10-15 (61 years ago)
Launch vehicle
Unknown
Launch site
Air Force Eastern Test Range (AFETR)
Object type
Payload
Rocket body
Debris
Shape & HBR
Unknown shape, 0.1 m
Radar Cross Section
Medium (>0.1 m² and <1 m²)

Expand to show TLE details & history
Last TLE update: 2 days ago

TLE from 2 days ago
0 TITAN 3C TRANSTAGE DEB
1 01964U 65082GZ  26170.60318053  .00000413  00000-0  13167-3 0  9992
2 01964  32.1986 132.5155 0175035 234.4726 123.9473 14.26358050117992
Epoch: 2026-06-19T14:28Z
TLE epoch observation values (Epoch: 2026-06-19T14:28:34.797Z)
Latitude
Longitude
7.54073°
Altitude
874.283 km
Speed
7.38 km/s
True Right ascension
08h 50m 03s
True Declination
0° 00' 00"
Sunlit
Object was in daylight at epoch
Visualization orbit readout
Latitude
Unknown
Longitude
Unknown
Altitude
Unknown
Speed
Unknown
Apparent Right ascension
Unknown
Apparent Declination
Unknown
Sunlit
N/A
Visualization observer readout
Local Sidereal Time
01:55:29
Azimuth
Unknown
Elevation
Unknown
Doppler factor
Unknown
Orbital elements
Apogee altitude
933.231 km
Perigee altitude
681.685 km
Semi-major axis
7,185.595 km
Eccentricity
0.0175
Inclination
32.1986°
RAAN
132.5155°
Arg. of periapsis
234.4726°
True anomaly
125.59086°
Mean anomaly
123.9473°
Eccentric anomaly
124.7711°
Mean motion
3.56327 °/min
Orbital period
101.03 mins
BSTAR
0.00013167

Documentation

Showing up to 5 results
|